Temp
-22 -22 -22 -22 -22 -22 -22 -22 -22 -22 -22 -22 -23 -23 -23 -23 -23 -24 -24 -24 -25 -25 -25 -24 -24 -23 -23 -23 -22 -23 -23 -22 -22 -22 -21 -20 -19 -19
-23 -22 -23 -23 -23 -23 -23 -23 -23 -23 -23 -23 -23 -23 -23 -24 -24 -24 -24 -24 -25 -25 -25 -25 -25 -25 -24 -24 -23 -23 -23 -22 -22 -22 -21 -21 -20 -19
-23 -23 -23 -23 -23 -23 -23 -23 -23 -23 -23 -23 -23 -23 -23 -23 -24 -24 -24 -24 -24 -24 -25 -25 -25 -25 -24 -24 -24 -24 -23 -23 -23 -22 -22 -21 -21 -20
-23 -24 -24 -24 -24 -24 -24 -24 -24 -24 -23 -23 -23 -23 -23 -24 -24 -24 -24 -24 -24 -24 -24 -24 -24 -25 -25 -24 -24 -24 -24 -24 -23 -22 -22 -22 -21 -21
-24 -24 -24 -24 -24 -24 -24 -24 -24 -24 -24 -24 -24 -24 -24 -24 -24 -24 -24 -24 -24 -25 -25 -25 -25 -24 -24 -24 -24 -24 -24 -24 -24 -23 -22 -22 -21 -21
-24 -24 -24 -25 -25 -24 -25 -25 -24 -24 -24 -24 -24 -24 -24 -24 -24 -24 -24 -25 -25 -25 -25 -25 -25 -25 -24 -24 -24 -24 -24 -24 -24 -24 -23 -23 -22 -21
-25 -25 -25 -25 -25 -25 -25 -25 -25 -25 -25 -25 -25 -25 -25 -24 -25 -25 -24 -25 -25 -25 -25 -25 -25 -25 -25 -24 -24 -24 -24 -24 -24 -24 -23 -23 -23 -22
-25 -25 -25 -26 -25 -25 -25 -25 -25 -25 -25 -25 -25 -25 -25 -25 -25 -25 -25 -25 -25 -25 -25 -25 -25 -25 -25 -25 -24 -24 -24 -24 -24 -24 -24 -23 -23 -23
-25 -25 -26 -26 -26 -26 -26 -26 -26 -26 -26 -25 -25 -25 -25 -25 -25 -25 -25 -25 -25 -25 -25 -25 -25 -25 -25 -25 -24 -24 -24 -24 -24 -24 -24 -23 -23 -23
-25 -25 -26 -27 -27 -26 -26 -26 -26 -26 -26 -26 -26 -25 -25 -25 -25 -25 -25 -25 -25 -25 -25 -25 -25 -25 -25 -25 -25 -24 -24 -24 -24 -24 -23 -23 -23 -23
-26 -26 -27 -27 -27 -26 -26 -26 -26 -26 -26 -26 -26 -26 -26 -25 -25 -25 -25 -25 -25 -25 -25 -25 -25 -25 -25 -25 -25 -25 -24 -24 -24 -23 -23 -23 -23 -23
-26 -27 -26 -27 -27 -27 -26 -26 -26 -26 -26 -26 -26 -26 -26 -26 -26 -26 -26 -26 -26 -26 -25 -25 -25 -25 -25 -25 -25 -24 -24 -24 -24 -24 -24 -23 -23 -23
-25 -26 -26 -27 -26 -26 -26 -26 -26 -26 -26 -26 -26 -26 -26 -26 -26 -26 -26 -26 -26 -26 -25 -25 -25 -25 -25 -25 -25 -25 -25 -25 -24 -24 -24 -24 -24 -23
-25 -26 -26 -26 -26 -26 -26 -26 -26 -26 -26 -26 -26 -26 -26 -26 -26 -26 -26 -26 -26 -26 -26 -26 -26 -25 -25 -25 -25 -25 -25 -25 -25 -25 -24 -24 -24 -24
-25 -26 -26 -26 -26 -26 -26 -26 -26 -26 -26 -26 -26 -26 -26 -26 -26 -26 -26 -26 -26 -26 -26 -27 -26 -26 -26 -26 -26 -25 -25 -25 -25 -25 -25 -25 -25 -24
-26 -26 -26 -26 -26 -26 -26 -26 -26 -26 -26 -26 -26 -26 -26 -26 -26 -26 -27 -27 -27 -27 -27 -27 -27 -27 -26 -26 -26 -26 -25 -25 -25 -25 -26 -26 -26 -25
-26 -27 -27 -26 -27 -27 -27 -27 -26 -26 -27 -26 -26 -26 -26 -27 -27 -27 -27 -27 -27 -27 -27 -27 -27 -27 -27 -27 -26 -26 -26 -26 -26 -26 -26 -26 -27 -26
-26 -27 -27 -27 -26 -26 -26 -26 -26 -27 -26 -27 -27 -27 -27 -27 -27 -27 -27 -27 -28 -28 -28 -28 -28 -27 -27 -27 -27 -27 -27 -27 -27 -27 -27 -27 -27 -27
-27 -27 -27 -27 -27 -26 -26 -26 -27 -27 -27 -27 -27 -27 -28 -28 -28 -28 -28 -28 -28 -28 -28 -28 -28 -28 -28 -28 -29 -28 -28 -28 -28 -28 -28 -28 -28 -29
-28 -27 -27 -27 -27 -27 -27 -27 -27 -28 -28 -28 -28 -28 -28 -28 -28 -28 -28 -28 -29 -29 -29 -29 -29 -29 -29 -29 -29 -30 -30 -29 -29 -29 -29 -30 -30 -30
-27 -27 -27 -27 -27 -27 -28 -28 -28 -28 -28 -28 -29 -29 -28 -28 -29 -29 -29 -29 -29 -29 -29 -30 -29 -29 -30 -30 -30 -30 -30 -31 -31 -30 -30 -30 -31 -31
-27 -27 -27 -27 -27 -27 -28 -28 -29 -29 -29 -29 -29 -29 -29 -29 -29 -29 -29 -29 -30 -30 -30 -30 -30 -30 -30 -30 -30 -31 -31 -31 -31 -31 -32 -32 -32 -32
-27 -27 -28 -28 -28 -28 -28 -28 -28 -29 -29 -29 -29 -29 -29 -29 -30 -30 -30 -30 -30 -30 -30 -30 -31 -31 -31 -31 -31 -31 -32 -32 -32 -32 -33 -33 -33 -34
Height
5607 5607 5606 5606 5606 5607 5607 5605 5603 5601 5600 5598 5597 5594 5591 5589 5587 5584 5582 5578 5575 5572 5571 5571 5571 5572 5573 5574 5576 5577 5579 5581 5584 5588 5593 5600 5607 5615
5600 5600 5599 5600 5600 5600 5600 5599 5597 5595 5595 5593 5592 5589 5587 5586 5585 5582 5579 5577 5574 5572 5570 5569 5568 5567 5567 5568 5567 5569 5570 5571 5574 5577 5582 5587 5593 5600
5594 5594 5594 5595 5595 5595 5594 5593 5591 5590 5590 5588 5587 5586 5584 5582 5581 5579 5576 5575 5572 5570 5568 5567 5566 5565 5564 5563 5562 5563 5563 5564 5565 5567 5571 5575 5580 5586
5587 5588 5588 5589 5589 5589 5588 5588 5587 5586 5584 5583 5582 5581 5580 5578 5576 5575 5573 5571 5569 5567 5565 5563 5562 5561 5560 5559 5559 5558 5557 5557 5558 5560 5562 5567 5570 5574
5581 5581 5582 5582 5583 5583 5583 5582 5582 5580 5578 5577 5576 5576 5575 5574 5573 5571 5569 5567 5566 5564 5561 5559 5557 5556 5556 5555 5554 5554 5553 5553 5553 5553 5555 5557 5561 5565
5573 5574 5575 5576 5577 5577 5577 5577 5576 5574 5573 5572 5571 5571 5570 5569 5568 5567 5566 5563 5562 5561 5558 5556 5554 5552 5551 5550 5549 5549 5548 5548 5549 5549 5549 5550 5552 5556
5566 5567 5568 5569 5571 5571 5571 5571 5570 5569 5568 5567 5567 5566 5566 5565 5563 5563 5562 5560 5558 5557 5554 5553 5550 5548 5546 5545 5544 5543 5542 5543 5543 5543 5544 5544 5545 5546
5559 5559 5560 5562 5564 5565 5566 5566 5565 5565 5564 5563 5562 5562 5560 5559 5558 5557 5556 5555 5553 5552 5550 5547 5545 5544 5542 5540 5539 5538 5537 5537 5537 5537 5538 5538 5539 5540
5551 5552 5552 5555 5557 5558 5559 5560 5559 5559 5559 5559 5558 5557 5555 5554 5553 5551 5550 5548 5547 5546 5545 5542 5540 5539 5537 5535 5533 5532 5531 5531 5531 5531 5531 5532 5533 5533
5543 5544 5544 5547 5549 5551 5553 5553 5553 5554 5553 5553 5552 5551 5550 5548 5547 5546 5544 5542 5539 5538 5537 5537 5535 5534 5532 5530 5529 5527 5526 5525 5524 5525 5525 5525 5525 5525
5535 5535 5536 5539 5541 5544 5545 5546 5547 5547 5547 5546 5546 5545 5543 5542 5541 5539 5537 5536 5534 5532 5530 5528 5527 5526 5525 5524 5523 5522 5521 5519 5517 5516 5516 5516 5516 5517
5526 5527 5528 5530 5533 5535 5537 5538 5539 5539 5539 5539 5538 5537 5536 5534 5533 5532 5530 5528 5526 5525 5522 5521 5520 5518 5517 5515 5515 5513 5513 5512 5510 5509 5508 5507 5506 5505
5518 5519 5520 5522 5524 5526 5528 5530 5530 5531 5531 5530 5529 5528 5528 5527 5525 5523 5521 5519 5517 5516 5514 5513 5511 5509 5507 5505 5504 5504 5503 5502 5501 5500 5499 5497 5496 5495
5509 5510 5511 5513 5515 5517 5519 5520 5520 5521 5521 5521 5520 5519 5518 5517 5515 5513 5512 5510 5508 5506 5504 5502 5501 5499 5497 5495 5493 5490 5489 5488 5488 5486 5485 5483 5482 5482
5501 5501 5503 5504 5506 5507 5508 5509 5509 5510 5510 5510 5510 5509 5507 5506 5503 5502 5500 5499 5497 5496 5494 5492 5490 5488 5486 5484 5482 5480 5479 5476 5474 5472 5470 5468 5467 5465
5491 5493 5494 5496 5497 5497 5497 5497 5498 5498 5498 5498 5498 5497 5496 5494 5492 5490 5488 5486 5485 5484 5482 5480 5478 5476 5474 5472 5470 5467 5465 5463 5461 5459 5457 5453 5450 5448
5482 5484 5484 5485 5485 5485 5485 5485 5485 5485 5485 5485 5485 5484 5483 5481 5479 5477 5475 5473 5471 5469 5468 5466 5464 5462 5460 5457 5454 5452 5450 5448 5445 5443 5440 5438 5433 5430
5472 5474 5474 5474 5474 5474 5473 5473 5473 5473 5472 5472 5472 5470 5468 5467 5465 5463 5461 5458 5456 5454 5452 5449 5447 5445 5443 5440 5438 5435 5433 5431 5428 5425 5421 5420 5417 5412
5465 5464 5463 5462 5461 5461 5461 5461 5460 5460 5459 5459 5457 5456 5454 5453 5451 5449 5446 5444 5442 5439 5436 5433 5431 5429 5426 5423 5419 5415 5414 5410 5408 5404 5400 5396 5394 5391
5455 5455 5454 5452 5451 5450 5449 5449 5448 5447 5446 5445 5443 5442 5440 5438 5436 5433 5431 5429 5426 5423 5419 5416 5414 5411 5409 5407 5404 5397 5393 5391 5388 5385 5381 5376 5371 5367
5444 5443 5442 5441 5439 5438 5437 5436 5435 5433 5432 5431 5429 5426 5424 5423 5420 5417 5414 5412 5409 5406 5402 5398 5396 5393 5390 5388 5385 5382 5375 5369 5365 5362 5357 5353 5348 5345
5434 5432 5430 5429 5427 5425 5423 5422 5421 5420 5417 5415 5413 5410 5408 5406 5403 5400 5397 5395 5391 5388 5385 5381 5377 5375 5371 5369 5366 5361 5357 5350 5343 5338 5332 5325 5320 5318
5422 5419 5418 5415 5413 5411 5409 5408 5406 5405 5402 5400 5397 5394 5391 5389 5386 5383 5380 5377 5374 5371 5368 5364 5360 5356 5352 5348 5344 5340 5334 5327 5322 5317 5309 5299 5292 5287
Wind_Speed
26 25 23 22 21 22 23 24 24 25 26 24 20 19 18 17 18 18 18 17 15 12 13 18 23 25 28 33 37 37 37 41 49 53 53 56 57 58
22 21 19 20 21 21 21 22 23 24 21 17 16 17 17 16 15 14 14 13 12 10 9 9 11 15 22 27 30 34 34 34 38 46 51 51 53 56
21 20 20 22 22 22 22 21 22 22 17 14 13 12 13 14 14 12 13 12 11 12 11 10 11 12 13 15 17 22 28 33 34 36 42 47 48 52
21 22 22 23 24 23 22 22 21 20 18 16 16 16 15 15 16 15 15 15 14 15 17 18 16 17 17 16 16 16 16 21 31 35 37 39 46 46
24 25 25 26 25 23 23 22 21 20 19 18 17 16 15 15 15 16 16 17 16 16 18 19 21 20 19 19 19 18 18 16 19 26 34 38 40 45
25 27 28 27 25 24 23 22 20 19 18 17 17 15 15 16 16 16 17 18 18 17 19 20 20 22 20 20 19 19 18 18 18 18 22 29 37 42
24 26 28 28 26 24 22 21 19 18 18 17 17 17 17 17 18 17 16 16 18 18 18 17 17 18 18 19 18 20 21 19 18 19 20 21 25 34
25 27 30 29 27 25 23 21 19 18 18 18 19 19 18 18 19 19 18 18 19 19 18 18 18 18 18 19 19 19 20 21 21 21 21 23 24 26
25 29 32 30 29 28 25 22 20 19 19 19 19 19 19 20 21 21 20 21 21 20 19 19 19 19 19 19 20 21 21 22 23 24 25 25 26 28
29 30 31 34 31 30 27 24 22 21 20 21 21 21 21 21 22 22 22 23 24 24 23 21 21 21 20 20 20 21 22 23 24 24 25 26 28 29
29 28 31 34 33 33 30 28 26 25 24 23 22 23 23 24 24 25 25 24 25 26 26 25 25 25 24 24 24 23 23 24 25 27 28 28 29 30
29 30 30 35 35 35 33 32 31 30 28 27 26 25 26 27 27 27 27 27 27 28 29 28 27 27 28 28 27 29 28 28 29 29 31 32 33 35
28 30 35 37 37 38 36 35 35 34 33 32 32 31 30 31 31 30 31 31 31 31 32 32 32 32 32 32 32 32 33 34 34 35 35 36 37 38
31 31 35 39 41 42 41 40 39 38 38 37 37 37 36 35 35 35 35 35 35 35 36 38 37 37 37 37 36 37 38 39 40 41 42 42 42 42
33 32 34 39 41 43 44 44 43 43 43 42 42 42 42 41 41 40 40 39 38 39 40 41 42 42 41 41 41 41 42 43 45 46 47 48 48 49
35 33 34 37 41 43 45 47 47 48 48 48 47 47 47 46 45 44 43 42 42 42 44 47 45 44 44 45 46 47 48 48 49 50 51 52 54 54
32 31 32 36 39 43 46 49 51 51 52 52 52 52 51 49 47 47 46 45 45 46 48 51 49 47 46 48 50 51 52 53 54 54 54 55 57 59
33 32 33 34 37 41 45 49 52 53 54 53 52 52 51 49 48 48 47 47 49 50 52 55 52 50 50 52 53 55 57 57 57 58 59 59 59 62
29 31 34 36 38 40 42 45 46 47 48 48 48 48 48 48 49 49 49 51 52 53 56 55 54 54 55 55 57 60 60 61 61 62 64 65 66 68
30 33 35 37 39 40 40 41 42 42 43 44 45 47 49 50 51 52 54 55 56 57 57 57 57 58 58 57 57 60 63 65 66 67 68 69 72 73
28 32 36 39 42 45 46 46 46 46 48 49 50 52 55 57 57 57 57 57 56 57 58 59 59 58 59 60 61 64 66 68 70 72 75 76 75 73
34 35 37 40 43 46 48 49 49 51 49 49 53 55 56 56 57 59 60 59 58 58 58 59 59 59 60 63 65 68 70 72 75 76 76 78 78 79
41 41 42 44 45 44 44 45 46 47 50 52 53 54 55 56 57 57 57 58 57 56 57 58 60 62 64 67 70 72 75 77 77 76 77 78 78 77
Wind_Direction
269 268 271 268 268 270 273 279 285 294 298 297 295 302 306 303 306 313 317 325 334 315 283 264 257 257 260 261 262 261 259 255 249 241 242 239 234 234
272 267 267 267 269 274 279 284 289 294 291 289 291 292 301 303 304 305 308 312 315 318 312 300 286 273 264 261 264 263 261 259 249 244 240 239 236 231
271 265 259 263 266 273 278 281 286 290 279 280 285 292 296 303 307 310 309 311 314 316 316 311 306 295 285 279 268 262 257 255 254 248 244 241 239 235
270 260 257 260 264 272 277 278 283 284 274 275 278 280 285 292 299 303 302 306 309 309 309 309 307 302 299 293 285 279 273 258 248 246 245 244 241 240
262 256 253 257 263 270 274 277 281 285 279 279 280 280 283 286 290 294 297 299 301 301 300 300 298 297 293 290 288 282 280 276 267 253 243 243 243 244
259 253 251 255 260 266 271 276 281 286 281 279 279 279 280 286 291 292 292 294 296 295 292 292 292 290 289 285 284 283 281 277 273 267 260 249 244 243
256 254 251 253 257 263 268 271 278 285 282 279 278 277 279 283 285 286 290 292 295 295 292 292 292 291 289 288 283 279 278 275 272 270 266 263 259 250
256 256 250 250 253 259 264 267 271 277 282 282 280 280 282 286 290 291 292 297 300 301 300 300 298 296 294 288 282 277 273 272 271 265 262 264 262 257
261 265 249 243 247 254 258 262 267 271 275 280 283 285 286 288 288 292 297 298 299 299 298 297 299 299 298 297 295 288 280 274 270 269 267 262 259 260
266 258 249 240 243 251 254 259 264 270 275 278 282 286 289 290 291 291 292 295 301 305 305 299 295 295 296 296 295 293 289 284 278 273 270 267 265 262
270 257 247 240 241 250 252 257 262 268 274 280 284 286 288 289 290 289 288 291 296 300 301 301 298 296 295 295 294 292 292 291 286 281 278 275 271 267
269 254 251 238 241 249 252 257 262 269 274 279 283 285 286 286 287 287 287 288 290 294 296 295 294 293 294 293 291 292 292 291 289 287 284 281 278 276
270 256 246 243 243 248 252 257 262 267 272 277 281 284 285 286 286 287 287 286 287 290 292 291 291 293 294 294 293 291 290 289 287 285 282 279 277 276
271 263 249 244 245 248 252 256 260 265 270 274 277 280 284 286 287 287 287 286 286 287 292 292 288 287 290 293 294 296 297 298 296 293 290 286 282 279
271 265 256 247 248 250 252 255 259 263 267 271 275 279 283 285 286 286 286 286 285 284 288 294 290 286 286 289 291 291 291 295 296 294 292 289 286 284
269 264 264 257 253 253 253 255 258 262 267 270 274 277 281 282 283 283 284 284 283 282 285 291 289 283 283 285 286 287 289 291 292 291 289 288 287 285
263 261 262 262 256 253 253 255 259 263 268 271 275 278 279 281 280 281 282 282 281 282 285 289 289 285 283 285 286 286 287 288 290 289 288 287 287 287
261 264 267 266 264 262 261 261 262 265 268 272 275 277 279 280 280 281 281 281 281 282 286 291 289 288 287 286 285 285 286 287 289 289 288 287 288 288
263 266 267 267 266 265 266 268 270 272 274 276 277 279 279 278 278 279 280 281 282 286 287 288 288 288 287 286 286 287 288 290 290 290 291 291 290 290
263 264 268 270 272 274 275 276 278 279 279 279 279 278 277 278 280 281 282 284 285 286 288 288 288 287 286 285 285 286 288 290 290 291 291 292 293 293
278 278 276 275 274 273 273 274 275 276 278 278 278 277 276 278 280 282 283 285 287 287 287 288 287 287 285 284 285 287 289 291 292 292 293 293 293 292
280 282 285 284 281 280 278 275 274 276 278 280 281 282 282 282 283 285 286 286 285 285 286 286 286 286 286 286 287 289 290 292 293 294 295 294 294 292
282 286 287 283 280 279 280 281 281 281 281 280 281 282 283 283 284 284 283 282 283 285 285 285 286 286 287 289 290 291 292 293 294 294 294 294 294 293